C7179 Weather Reports


Display with metric or nautical units.
time (UTC)temp
F
wind
direction
speed
MPH
gust
MPH
rain 1hr
in
rain 24hr
in
rain mn
in
humidity
%
barometer
mb
20190320004444 66 195 1.0 2.0 0.00 0.00 0.00 40 1022.2
20190320003944 66 195 0.0 5.0 0.00 0.00 0.00 40 1022.2
20190320003444 66 195 1.0 6.0 0.00 0.00 0.00 39 1022.2
20190320002945 67 195 2.0 8.0 0.00 0.00 0.00 39 1022.2
20190320002444 67 215 3.0 8.0 0.00 0.00 0.00 39 1022.1
20190320001944 67 180 2.0 6.0 0.00 0.00 0.00 39 1022.1
20190320001444 67 192 2.0 8.0 0.00 0.00 0.00 40 1022.1
20190320000944 67 193 1.0 8.0 0.00 0.00 0.00 39 1022.2
20190320000444 68 190 2.0 7.0 0.00 0.00 0.00 38 1022.2
20190319235944 68 200 2.0 10.0 0.00 0.00 0.00 38 1022.1
20190319235443 68 169 6.0 10.0 0.00 0.00 0.00 37 1022.1
20190319234944 68 194 2.0 9.0 0.00 0.00 0.00 37 1022.0
20190319234443 69 169 5.0 9.0 0.00 0.00 0.00 37 1021.9
20190319233943 69 170 2.0 8.0 0.00 0.00 0.00 37 1022.0
20190319233443 69 165 2.0 8.0 0.00 0.00 0.00 37 1022.0
20190319232943 69 204 3.0 8.0 0.00 0.00 0.00 37 1022.1
20190319232443 69 159 2.0 8.0 0.00 0.00 0.00 37 1022.2
20190319231943 69 196 5.0 11.0 0.00 0.00 0.00 36 1022.2
20190319231443 69 194 3.0 11.0 0.00 0.00 0.00 36 1022.1
20190319230943 69 137 3.0 10.0 0.00 0.00 0.00 38 1022.1
20190319230442 69 159 2.0 8.0 0.00 0.00 0.00 38 1022.0
20190319225942 69 176 1.0 9.0 0.00 0.00 0.00 37 1022.0
20190319225442 68 197 1.0 9.0 0.00 0.00 0.00 38 1022.2
20190319224943 68 189 4.0 8.0 0.00 0.00 0.00 36 1022.2
20190319224442 69 225 7.0 7.0 0.00 0.00 0.00 37 1022.3
20190319223942 69 136 1.0 8.0 0.00 0.00 0.00 36 1022.3
20190319223442 69 140 0.0 8.0 0.00 0.00 0.00 37 1022.4
20190319222942 69 194 3.0 10.0 0.00 0.00 0.00 36 1022.5
20190319222442 69 217 5.0 10.0 0.00 0.00 0.00 35 1022.5
20190319221942 70 187 7.0 10.0 0.00 0.00 0.00 36 1022.5
20190319221442 70 200 4.0 10.0 0.00 0.00 0.00 36 1022.5
20190319220941 70 175 6.0 10.0 0.00 0.00 0.00 34 1022.7
20190319220442 70 94 4.0 11.0 0.00 0.00 0.00 34 1022.6
20190319215941 70 169 4.0 11.0 0.00 0.00 0.00 35 1022.7
20190319215441 70 200 4.0 11.0 0.00 0.00 0.00 34 1022.7
20190319214941 71 114 7.0 11.0 0.00 0.00 0.00 35 1022.8
20190319214441 70 167 5.0 11.0 0.00 0.00 0.00 36 1022.8
20190319213941 70 170 6.0 10.0 0.00 0.00 0.00 36 1022.8
20190319213441 70 184 2.0 9.0 0.00 0.00 0.00 34 1022.9
20190319212941 69 219 5.0 10.0 0.00 0.00 0.00 35 1022.9
20190319212441 70 227 4.0 11.0 0.00 0.00 0.00 34 1023.2
20190319211940 70 231 7.0 11.0 0.00 0.00 0.00 34 1023.1
20190319211440 70 213 3.0 11.0 0.00 0.00 0.00 35 1023.1
20190319210941 69 126 0.0 11.0 0.00 0.00 0.00 35 1023.0
20190319210441 70 169 2.0 9.0 0.00 0.00 0.00 36 1023.3
20190319205940 69 216 7.0 10.0 0.00 0.00 0.00 36 1023.2
20190319205441 69 211 4.0 10.0 0.00 0.00 0.00 37 1023.4
20190319204940 69 194 3.0 11.0 0.00 0.00 0.00 36 1023.4
20190319204440 69 182 4.0 11.0 0.00 0.00 0.00 36 1023.3
20190319203940 69 180 11.0 11.0 0.00 0.00 0.00 35 1023.4
20190319203440 69 192 5.0 11.0 0.00 0.00 0.00 36 1023.5
20190319202939 69 172 7.0 10.0 0.00 0.00 0.00 36 1023.5
20190319202440 69 192 4.0 10.0 0.00 0.00 0.00 34 1023.5
20190319201941 69 176 5.0 10.0 0.00 0.00 0.00 36 1023.4
20190319201440 69 168 5.0 11.0 0.00 0.00 0.00 36 1023.6
20190319200939 69 133 4.0 11.0 0.00 0.00 0.00 36 1023.6
20190319200440 69 187 5.0 11.0 0.00 0.00 0.00 35 1023.6
20190319195939 69 188 4.0 11.0 0.00 0.00 0.00 34 1023.6
20190319195439 70 192 9.0 14.0 0.00 0.00 0.00 35 1023.9
20190319194939 70 203 1.0 14.0 0.00 0.00 0.00 35 1023.9
20190319194439 69 183 7.0 12.0 0.00 0.00 0.00 35 1023.9
20190319193939 69 231 1.0 12.0 0.00 0.00 0.00 36 1024.1
20190319193438 70 205 8.0 15.0 0.00 0.00 0.00 38 1024.1
20190319192938 70 234 2.0 15.0 0.00 0.00 0.00 36 1024.2
20190319192439 69 188 4.0 12.0 0.00 0.00 0.00 35 1024.4
20190319191939 69 217 4.0 12.0 0.00 0.00 0.00 37 1024.5
20190319191438 70 134 7.0 11.0 0.00 0.00 0.00 37 1024.5
20190319190938 70 140 5.0 11.0 0.00 0.00 0.00 38 1024.7
20190319190438 70 184 4.0 10.0 0.00 0.00 0.00 34 1024.8
20190319185938 69 214 2.0 11.0 0.00 0.00 0.00 36 1024.9
20190319185438 69 199 9.0 11.0 0.00 0.00 0.00 37 1024.9
20190319184938 69 164 9.0 10.0 0.00 0.00 0.00 37 1025.1
20190319184438 69 178 3.0 10.0 0.00 0.00 0.00 37 1025.1
20190319183938 69 188 5.0 9.0 0.00 0.00 0.00 37 1025.2
20190319183438 69 181 3.0 9.0 0.00 0.00 0.00 37 1025.2
20190319182937 68 175 3.0 11.0 0.00 0.00 0.00 38 1025.3
20190319182437 68 202 3.0 11.0 0.00 0.00 0.00 37 1025.4
20190319181937 68 198 4.0 11.0 0.00 0.00 0.00 38 1025.5
20190319181437 69 209 7.0 15.0 0.00 0.00 0.00 37 1025.6
20190319180937 69 177 5.0 15.0 0.00 0.00 0.00 38 1025.6
20190319180437 69 212 5.0 9.0 0.00 0.00 0.00 39 1025.7
20190319175937 68 169 4.0 8.0 0.00 0.00 0.00 40 1025.8
20190319175436 68 199 1.0 9.0 0.00 0.00 0.00 40 1025.9
20190319174937 68 164 4.0 11.0 0.00 0.00 0.00 39 1025.9
20190319174436 67 165 6.0 11.0 0.00 0.00 0.00 38 1025.8
20190319173936 67 138 3.0 9.0 0.00 0.00 0.00 38 1025.9
20190319173436 67 223 4.0 11.0 0.00 0.00 0.00 38 1026.0
20190319172936 67 190 4.0 11.0 0.00 0.00 0.00 37 1026.0
20190319172436 68 201 4.0 8.0 0.00 0.00 0.00 38 1026.0
20190319171936 67 192 4.0 10.0 0.00 0.00 0.00 37 1026.1
20190319171436 68 176 3.0 10.0 0.00 0.00 0.00 36 1026.2
20190319170936 68 160 2.0 8.0 0.00 0.00 0.00 35 1026.2
20190319170436 67 183 4.0 10.0 0.00 0.00 0.00 36 1026.4
20190319165935 67 215 5.0 10.0 0.00 0.00 0.00 37 1026.3
20190319165435 67 195 4.0 8.0 0.00 0.00 0.00 38 1026.2
20190319164935 67 186 3.0 8.0 0.00 0.00 0.00 38 1026.4
20190319164435 67 217 3.0 9.0 0.00 0.00 0.00 37 1026.3
20190319163936 68 178 4.0 9.0 0.00 0.00 0.00 36 1026.4
20190319163435 67 211 3.0 8.0 0.00 0.00 0.00 38 1026.4
20190319162935 67 188 5.0 10.0 0.00 0.00 0.00 39 1026.2
20190319162435 66 192 1.0 10.0 0.00 0.00 0.00 40 1026.1
20190319161935 65 222 4.0 7.0 0.00 0.00 0.00 41 1026.1
20190319161435 65 192 5.0 7.0 0.00 0.00 0.00 42 1026.0
20190319160934 65 172 1.0 7.0 0.00 0.00 0.00 43 1026.1
20190319160434 64 177 4.0 7.0 0.00 0.00 0.00 43 1026.2
20190319155934 65 181 3.0 8.0 0.00 0.00 0.00 44 1026.3
20190319155435 66 211 2.0 8.0 0.00 0.00 0.00 40 1026.3
20190319154934 65 190 3.0 7.0 0.00 0.00 0.00 45 1026.4
20190319154434 63 189 1.0 7.0 0.00 0.00 0.00 44 1026.4
20190319153934 62 177 1.0 10.0 0.00 0.00 0.00 45 1026.3
20190319153434 62 181 4.0 10.0 0.00 0.00 0.00 43 1026.4
20190319152934 63 190 5.0 7.0 0.00 0.00 0.00 46 1026.3
20190319152434 62 176 3.0 7.0 0.00 0.00 0.00 47 1026.3
20190319151933 61 161 2.0 6.0 0.00 0.00 0.00 46 1026.4
20190319151433 61 181 1.0 5.0 0.00 0.00 0.00 48 1026.5
20190319150933 60 186 1.0 6.0 0.00 0.00 0.00 48 1026.4
20190319150433 60 172 2.0 6.0 0.00 0.00 0.00 49 1026.3
20190319145933 59 190 2.0 5.0 0.00 0.00 0.00 51 1026.1
20190319145433 59 197 4.0 4.0 0.00 0.00 0.00 53 1026.2
20190319144933 58 186 2.0 3.0 0.00 0.00 0.00 54 1026.1
20190319144433 58 193 0.0 3.0 0.00 0.00 0.00 54 1026.2
20190319143933 58 191 1.0 5.0 0.00 0.00 0.00 55 1026.2
20190319143433 58 197 2.0 5.0 0.00 0.00 0.00 58 1026.1
20190319142933 57 194 5.0 5.0 0.00 0.00 0.00 57 1026.1
20190319142433 57 182 2.0 5.0 0.00 0.00 0.00 59 1026.1
20190319141932 57 201 0.0 5.0 0.00 0.00 0.00 59 1026.0
20190319141433 56 197 3.0 4.0 0.00 0.00 0.00 60 1026.0
20190319140932 55 176 1.0 2.0 0.00 0.00 0.00 64 1025.9
20190319140432 54 176 1.0 2.0 0.00 0.00 0.00 64 1026.0
20190319135932 54 176 0.0 1.0 0.00 0.00 0.00 67 1025.8
20190319135433 53 176 0.0 1.0 0.00 0.00 0.00 70 1025.9
20190319134932 52 176 0.0 1.0 0.00 0.00 0.00 72 1025.7
20190319134432 51 176 0.0 0.0 0.00 0.00 0.00 75 1025.6
20190319133932 50 176 0.0 0.0 0.00 0.00 0.00 81 1025.6
20190319133432 49 176 0.0 0.0 0.00 0.00 0.00 81 1025.6
20190319132932 49 176 0.0 0.0 0.00 0.00 0.00 82 1025.5
20190319132432 48 176 0.0 0.0 0.00 0.00 0.00 82 1025.5
20190319131932 48 176 0.0 0.0 0.00 0.00 0.00 82 1025.4
20190319131431 47 176 0.0 0.0 0.00 0.00 0.00 84 1025.4
20190319130931 47 176 0.0 0.0 0.00 0.00 0.00 83 1025.4
20190319130431 46 176 0.0 0.0 0.00 0.00 0.00 84 1025.2
20190319125931 46 176 0.0 0.0 0.00 0.00 0.00 84 1025.2
20190319125431 46 176 0.0 0.0 0.00 0.00 0.00 84 1025.4
20190319124931 45 176 0.0 0.0 0.00 0.00 0.00 83 1025.3
20190319124431 45 176 0.0 0.0 0.00 0.00 0.00 84 1025.3
20190319123931 45 176 0.0 0.0 0.00 0.00 0.00 83 1025.2
20190319123430 45 176 0.0 0.0 0.00 0.00 0.00 83 1025.2
20190319122930 45 176 0.0 0.0 0.00 0.00 0.00 82 1025.2
20190319122430 45 176 0.0 0.0 0.00 0.00 0.00 82 1025.2
20190319121931 46 176 0.0 0.0 0.00 0.00 0.00 81 1025.2
20190319121431 46 176 0.0 0.0 0.00 0.00 0.00 80 1025.1
20190319120930 46 176 0.0 0.0 0.00 0.00 0.00 80 1025.0
20190319120430 46 176 0.0 0.0 0.00 0.00 0.00 80 1025.0
20190319115930 46 176 0.0 0.0 0.00 0.00 0.00 80 1025.0
20190319115430 46 176 0.0 0.0 0.00 0.00 0.00 80 1025.1
20190319114930 46 176 0.0 0.0 0.00 0.00 0.00 80 1025.1
20190319114430 46 176 0.0 0.0 0.00 0.00 0.00 80 1025.0
20190319113930 46 176 0.0 0.0 0.00 0.00 0.00 80 1025.0
20190319113430 46 176 0.0 0.0 0.00 0.00 0.00 80 1025.1
20190319112930 46 176 0.0 0.0 0.00 0.00 0.00 81 1025.0
20190319112429 46 176 0.0 0.0 0.00 0.00 0.00 81 1025.0
20190319111929 46 176 0.0 0.0 0.00 0.00 0.00 82 1024.8
20190319111429 46 176 0.0 0.0 0.00 0.00 0.00 82 1024.9
20190319110929 46 176 0.0 0.0 0.00 0.00 0.00 83 1024.8
20190319110429 46 176 0.0 0.0 0.00 0.00 0.00 83 1024.8
20190319105929 45 176 0.0 0.0 0.00 0.00 0.00 83 1024.8
20190319105429 45 176 0.0 0.0 0.00 0.00 0.00 84 1024.7
20190319104929 45 176 0.0 0.0 0.00 0.00 0.00 84 1024.6
20190319104429 45 176 0.0 0.0 0.00 0.00 0.00 83 1024.7
20190319103928 45 176 0.0 0.0 0.00 0.00 0.00 83 1024.7
20190319103429 45 176 0.0 0.0 0.00 0.00 0.00 83 1024.6
20190319102929 45 176 0.0 0.0 0.00 0.00 0.00 82 1024.6
20190319102429 46 176 0.0 0.0 0.00 0.00 0.00 82 1024.7
20190319101928 46 176 0.0 0.0 0.00 0.00 0.00 82 1024.8
20190319101428 46 176 0.0 0.0 0.00 0.00 0.00 82 1024.8
20190319100928 46 176 0.0 0.0 0.00 0.00 0.00 81 1024.6
20190319100428 46 176 0.0 0.0 0.00 0.00 0.00 81 1024.7
20190319095928 46 176 0.0 0.0 0.00 0.00 0.00 81 1024.6
20190319095427 47 176 0.0 0.0 0.00 0.00 0.00 82 1024.6
20190319094928 47 176 0.0 0.0 0.00 0.00 0.00 82 1024.6
20190319094427 47 176 0.0 0.0 0.00 0.00 0.00 81 1024.5
20190319093927 47 176 0.0 0.0 0.00 0.00 0.00 82 1024.6
20190319093427 47 176 0.0 0.0 0.00 0.00 0.00 80 1024.6
20190319092927 47 176 0.0 0.0 0.00 0.00 0.00 81 1024.6
20190319092427 47 176 0.0 0.0 0.00 0.00 0.00 80 1024.5
20190319091927 47 176 0.0 0.0 0.00 0.00 0.00 78 1024.7
20190319091427 47 176 0.0 0.0 0.00 0.00 0.00 76 1024.7
20190319090927 47 176 0.0 0.0 0.00 0.00 0.00 75 1024.7
20190319090427 47 176 0.0 0.0 0.00 0.00 0.00 76 1024.8
20190319085927 47 176 0.0 0.0 0.00 0.00 0.00 75 1024.9
20190319085426 48 176 0.0 0.0 0.00 0.00 0.00 75 1024.9
20190319084927 48 176 0.0 0.0 0.00 0.00 0.00 75 1024.9
20190319084426 48 176 0.0 0.0 0.00 0.00 0.00 74 1025.0
20190319083926 48 176 0.0 0.0 0.00 0.00 0.00 74 1025.0
20190319083426 48 176 0.0 0.0 0.00 0.00 0.00 74 1025.1
20190319082926 48 176 0.0 0.0 0.00 0.00 0.00 74 1025.1
20190319082426 48 176 0.0 0.0 0.00 0.00 0.00 74 1025.1
20190319081926 48 176 0.0 0.0 0.00 0.00 0.00 74 1025.1
20190319081426 48 176 0.0 0.0 0.00 0.00 0.00 74 1025.2
20190319080926 49 176 0.0 0.0 0.00 0.00 0.00 73 1025.3
20190319080426 49 176 0.0 0.0 0.00 0.00 0.00 72 1025.3
20190319075925 49 176 0.0 0.0 0.00 0.00 0.00 72 1025.4
20190319075425 49 176 0.0 0.0 0.00 0.00 0.00 72 1025.3
20190319074926 50 176 0.0 0.0 0.00 0.00 0.00 71 1025.5
20190319074425 50 176 0.0 0.0 0.00 0.00 0.00 71 1025.5
20190319073925 50 176 0.0 0.0 0.00 0.00 0.00 71 1025.6
20190319073425 50 176 0.0 0.0 0.00 0.00 0.00 70 1025.6
20190319072925 50 176 0.0 0.0 0.00 0.00 0.00 69 1025.5
20190319072425 50 176 0.0 0.0 0.00 0.00 0.00 70 1025.6
20190319071925 50 176 0.0 0.0 0.00 0.00 0.00 70 1025.6
20190319071424 50 176 0.0 0.0 0.00 0.00 0.00 70 1025.5
20190319070925 50 176 0.0 0.0 0.00 0.00 0.00 69 1025.6
20190319070425 51 176 0.0 0.0 0.00 0.00 0.00 68 1025.4
20190319065925 51 176 0.0 0.0 0.00 0.00 0.00 69 1025.5
20190319065424 51 176 0.0 0.0 0.00 0.00 0.00 68 1025.4
20190319064924 51 176 0.0 0.0 0.00 0.00 0.00 68 1025.5
20190319064424 51 176 0.0 0.0 0.00 0.00 0.00 68 1025.5
20190319063924 51 176 0.0 0.0 0.00 0.00 0.00 67 1025.5
20190319063424 51 176 0.0 0.0 0.00 0.00 0.00 68 1025.6
20190319062924 51 176 0.0 0.0 0.00 0.00 0.00 68 1025.5
20190319062424 51 176 0.0 0.0 0.00 0.00 0.00 68 1025.5
20190319061923 51 176 0.0 0.0 0.00 0.00 0.00 67 1025.5
20190319061424 51 176 0.0 0.0 0.00 0.00 0.00 67 1025.5
20190319060923 51 176 0.0 0.0 0.00 0.00 0.00 66 1025.6
20190319060424 51 176 0.0 1.0 0.00 0.00 0.00 66 1025.6
20190319055924 51 176 0.0 1.0 0.00 0.00 0.00 66 1025.6
20190319055423 51 176 0.0 1.0 0.00 0.00 0.00 66 1025.6
20190319054923 51 176 0.0 0.0 0.00 0.00 0.00 66 1025.5
20190319054423 51 176 0.0 0.0 0.00 0.00 0.00 66 1025.5
20190319053923 51 176 0.0 0.0 0.00 0.00 0.00 67 1025.5
20190319053423 50 176 0.0 0.0 0.00 0.00 0.00 67 1025.5
20190319052923 51 176 0.0 0.0 0.00 0.00 0.00 66 1025.6
20190319052423 51 176 0.0 0.0 0.00 0.00 0.00 65 1025.6
20190319051923 51 176 0.0 0.0 0.00 0.00 0.00 65 1025.6
20190319051423 51 176 0.0 0.0 0.00 0.00 0.00 64 1025.7
20190319050922 51 176 0.0 0.0 0.00 0.00 0.00 64 1025.6
20190319050422 51 176 0.0 0.0 0.00 0.00 0.00 64 1025.7
20190319045952 51 176 0.0 0.0 0.00 0.00 0.00 63 1025.7
20190319045422 52 176 0.0 0.0 0.00 0.00 0.00 62 1025.7
20190319044922 52 176 0.0 0.0 0.00 0.00 0.00 63 1025.7
20190319044422 52 176 0.0 0.0 0.00 0.00 0.00 63 1025.7
20190319043922 52 176 0.0 0.0 0.00 0.00 0.00 62 1025.6
20190319043422 52 176 0.0 0.0 0.00 0.00 0.00 62 1025.6
20190319042922 52 176 0.0 0.0 0.00 0.00 0.00 61 1025.6
20190319042422 53 176 0.0 0.0 0.00 0.00 0.00 61 1025.5
20190319041921 53 176 0.0 0.0 0.00 0.00 0.00 60 1025.5
20190319041421 53 176 0.0 0.0 0.00 0.00 0.00 60 1025.4
20190319040921 53 176 0.0 0.0 0.00 0.00 0.00 59 1025.4
20190319040421 54 176 0.0 0.0 0.00 0.00 0.00 58 1025.5
20190319035921 54 176 0.0 0.0 0.00 0.00 0.00 57 1025.6
20190319035421 55 176 0.0 0.0 0.00 0.00 0.00 56 1025.5
20190319034921 55 176 0.0 0.0 0.00 0.00 0.00 56 1025.5
20190319034421 55 176 0.0 0.0 0.00 0.00 0.00 56 1025.5
20190319033921 55 176 0.0 0.0 0.00 0.00 0.00 55 1025.5
20190319033421 55 176 0.0 0.0 0.00 0.00 0.00 54 1025.5
20190319032921 55 176 0.0 0.0 0.00 0.00 0.00 54 1025.4
20190319032420 55 176 0.0 0.0 0.00 0.00 0.00 55 1025.3
20190319031921 55 176 0.0 0.0 0.00 0.00 0.00 55 1025.3
20190319031420 56 176 0.0 0.0 0.00 0.00 0.00 53 1025.3
20190319030921 56 176 0.0 0.0 0.00 0.00 0.00 52 1025.3
20190319030420 56 176 0.0 0.0 0.00 0.00 0.00 51 1025.2
20190319025951 57 176 0.0 0.0 0.00 0.00 0.00 51 1025.2
20190319025420 57 176 0.0 0.0 0.00 0.00 0.00 51 1025.1
20190319024920 57 176 0.0 0.0 0.00 0.00 0.00 50 1025.1
20190319024450 57 176 0.0 0.0 0.00 0.00 0.00 49 1024.9
20190319023950 57 176 0.0 0.0 0.00 0.00 0.00 50 1024.9
20190319023420 58 176 0.0 0.0 0.00 0.00 0.00 48 1024.9
20190319022920 58 176 0.0 0.0 0.00 0.00 0.00 48 1024.9
20190319022419 58 176 0.0 0.0 0.00 0.00 0.00 48 1024.8
20190319021919 58 176 0.0 0.0 0.00 0.00 0.00 47 1024.9
20190319021419 58 176 0.0 0.0 0.00 0.00 0.00 47 1024.8
20190319020949 59 176 0.0 0.0 0.00 0.00 0.00 46 1024.7
20190319020420 59 176 0.0 0.0 0.00 0.00 0.00 46 1024.7
20190319015919 60 176 0.0 0.0 0.00 0.00 0.00 45 1024.7
20190319015449 60 176 0.0 0.0 0.00 0.00 0.00 44 1024.7
20190319014919 60 176 0.0 0.0 0.00 0.00 0.00 42 1024.6
20190319014449 60 176 0.0 0.0 0.00 0.00 0.00 43 1024.6
20190319013919 61 176 0.0 0.0 0.00 0.00 0.00 42 1024.6
20190319013419 61 176 0.0 0.0 0.00 0.00 0.00 42 1024.6
20190319012919 62 176 0.0 0.0 0.00 0.00 0.00 39 1024.6
20190319012449 62 176 0.0 0.0 0.00 0.00 0.00 38 1024.5
20190319011918 63 176 0.0 0.0 0.00 0.00 0.00 37 1024.6
20190319011418 63 176 0.0 1.0 0.00 0.00 0.00 36 1024.7
20190319010919 63 176 0.0 2.0 0.00 0.00 0.00 37 1024.6
20190319010449 64 176 1.0 2.0 0.00 0.00 0.00 35 1024.6
20190319005918 64 176 0.0 0.0 0.00 0.00 0.00 34 1024.6
20190319005448 65 176 0.0 1.0 0.00 0.00 0.00 34 1024.4
20190319004918 65 176 0.0 1.0 0.00 0.00 0.00 33 1024.4